Flag for Cuba Weather past 2 weeks in Holguín, Cuba

Now
95 °F

Scattered clouds.


Feels Like: 103 °F
Forecast: 76 / 92 °F
Wind: 8 mph from East

Location: Holguin Civ / Mil

Current Time: Jul 28, 2015 at 4:11:51 PM

Latest Report: Jul 28, 2015 at 3:50 PM


Visibility: N/A

Pressure: 29.92 "Hg

Humidity: 47%

Dew point: 72 °F

Location of HolguínLocation

Historic Weather in Holguín — Graph

°F

Holguín temperature yesterday

Maximum temperature yesterday: 95 °F (at 1:50 PM)
Minimum temperature yesterday: 75 °F (at 6:50 AM)
Average temperature yesterday: 85 °F

Past Weeks' High & Low Weather Summary

 TemperatureHumidityPressure
High99 °F (Jul 23, 3:51 PM)94% (Jul 14, 11:50 PM)30.09 "Hg (Jul 14, 11:50 PM)
Low70 °F (Jul 14, 5:50 PM)31% (Jul 23, 3:51 PM)29.89 "Hg (Jul 26, 4:50 PM)
Average81 °F72%30.01 "Hg
* Reported Jul 13 1:51 PM — Jul 28 1:50 PM, Holguín, Weather by CustomWeather, © 2015

Note: Actual official high and low records may vary slightly from our data, if they occured in-between our weather recording intervals... More about our weather records

Advertising

Holguín weather history for previous 24 hours

 ConditionsComfort  
Time TempWeatherWind HumidityBarometerVisibility
1:50 PM
Tue, Jul 28
93 °FPassing clouds.10 mph41%29.95 "HgN/A
12:53 PM93 °FPassing clouds.12 mph41%29.98 "Hg6 mi
11:52 AM90 °FPartly sunny.14 mph52%29.98 "Hg6 mi
10:50 AM88 °FPartly sunny.16 mph52%30.01 "Hg6 mi
9:50 AM86 °FPassing clouds.13 mph62%30.01 "Hg6 mi
8:51 AM82 °FPassing clouds.10 mph74%30.01 "Hg6 mi
7:50 AM79 °FPassing clouds.9 mph84%30.01 "Hg6 mi
6:51 AM75 °FFog.5 mph89%29.98 "Hg4 mi
5:50 AM75 °FPassing clouds.2 mph89%29.98 "Hg5 mi
4:52 AM77 °FPassing clouds.5 mph83%29.98 "Hg5 mi
3:50 AM77 °FPassing clouds.5 mph89%29.98 "Hg5 mi
2:50 AM79 °FPassing clouds.5 mph79%30.01 "Hg5 mi
1:50 AM79 °FPassing clouds.8 mph79%30.01 "Hg5 mi
12:50 AM81 °FWarm.5 mph74%30.01 "HgN/A
11:50 PM
Mon, Jul 27
81 °FPassing clouds.8 mph74%30.01 "Hg6 mi
10:50 PM82 °FPassing clouds.8 mph70%30.01 "Hg6 mi
9:51 PM84 °FPassing clouds.7 mph70%30.01 "Hg6 mi
8:51 PM84 °FPassing clouds.8 mph70%30.01 "Hg6 mi
7:50 PM86 °FPartly sunny.8 mph66%29.98 "Hg6 mi
6:50 PM88 °FBroken clouds.9 mph55%29.98 "Hg6 mi
5:53 PM90 °FScattered clouds.6 mph49%29.95 "Hg6 mi
4:50 PM93 °FScattered clouds.9 mph44%29.95 "Hg6 mi
Weather by CustomWeather, © 2015

See weather overviewHow to use our weather pages